When you browse on this site, cookies collect data to enhance your experience and personalize the content and advertising you see.
Visit our Privacy Policy to learn more. By continuing to use the site, you agree to this use of cookies and data.
  • In Deutschland
  • Länderverzeichnis
  • Für 7 Tage
  • Wassertemperatur
  • Satellitenkarten
  • Wetterkarte
  • Widgets
  • user-avatar
    Anmelden

    Stündliche Wetter Manchester

    Heute, 17 Dezember, Montag

    Zeit Temperatur Niederschläge Wind Luftdruck Luftfeuchtigkeit
    00:00 +5°C° 0 mm 5 m/S 754 mmHg 90%
    01:00 +5°C° 0 mm 5 m/S 754 mmHg 90%
    02:00 +5°C° 0 mm 5 m/S 755 mmHg 89%
    03:00 +5°C° 0 mm 5 m/S 755 mmHg 89%
    04:00 +4°C° 0 mm 4 m/S 756 mmHg 89%
    05:00 +4°C° 0 mm 4 m/S 757 mmHg 89%
    06:00 +4°C° 0 mm 3 m/S 757 mmHg 89%
    07:00 +4°C° 0 mm 4 m/S 758 mmHg 89%
    08:00 +4°C° 0 mm 4 m/S 758 mmHg 89%
    09:00 +4°C° 0 mm 4 m/S 759 mmHg 89%
    10:00 +5°C° 0 mm 4 m/S 759 mmHg 87%
    11:00 +6°C° 0 mm 4 m/S 759 mmHg 85%
    12:00 +7°C° 0 mm 5 m/S 759 mmHg 83%
    13:00 +7°C° 0 mm 5 m/S 759 mmHg 84%
    14:00 +7°C° 0 mm 5 m/S 758 mmHg 85%
    15:00 +7°C° 0 mm 6 m/S 758 mmHg 86%
    16:00 +7°C° 0.1 mm 6 m/S 758 mmHg 87%
    17:00 +7°C° 0.1 mm 6 m/S 758 mmHg 88%
    18:00 +6°C° 0.1 mm 7 m/S 757 mmHg 89%
    19:00 +8°C° 0 mm 7 m/S 757 mmHg 89%
    20:00 +8°C° 0 mm 7 m/S 757 mmHg 90%
    21:00 +8°C° 0 mm 7 m/S 757 mmHg 90%
    22:00 +7°C° 0 mm 8 m/S 756 mmHg 89%
    23:00 +9°C° 0 mm 8 m/S 756 mmHg 88%

    Morgen, 18 Dezember, Dienstag

    Zeit Temperatur Niederschläge Wind Luftdruck Luftfeuchtigkeit
    00:00 +9°C° 0 mm 8 m/S 756 mmHg 87%
    01:00 +9°C° 0 mm 8 m/S 755 mmHg 86%
    02:00 +8°C° 0 mm 9 m/S 754 mmHg 86%
    03:00 +8°C° 0 mm 9 m/S 753 mmHg 85%
    04:00 +8°C° 0 mm 9 m/S 753 mmHg 85%
    05:00 +10°C° 0 mm 9 m/S 752 mmHg 84%
    06:00 +9°C° 0 mm 10 m/S 751 mmHg 83%
    07:00 +9°C° 0.1 mm 10 m/S 751 mmHg 82%
    08:00 +9°C° 0.1 mm 11 m/S 750 mmHg 80%
    09:00 +8°C° 0.1 mm 11 m/S 750 mmHg 78%
    10:00 +8°C° 0.6 mm 12 m/S 749 mmHg 79%
    11:00 +8°C° 0.6 mm 12 m/S 748 mmHg 79%
    12:00 +8°C° 0.6 mm 12 m/S 748 mmHg 79%
    13:00 +8°C° 1 mm 12 m/S 747 mmHg 81%
    14:00 +8°C° 1 mm 11 m/S 747 mmHg 83%
    15:00 +8°C° 1 mm 10 m/S 746 mmHg 84%
    16:00 +7°C° 1.5 mm 8 m/S 746 mmHg 86%
    17:00 +8°C° 1.5 mm 7 m/S 746 mmHg 88%
    18:00 +7°C° 1.5 mm 5 m/S 747 mmHg 90%
    19:00 +7°C° 0.6 mm 5 m/S 747 mmHg 90%
    20:00 +7°C° 0.6 mm 4 m/S 747 mmHg 89%
    21:00 +7°C° 0.6 mm 4 m/S 748 mmHg 89%
    22:00 +6°C° 0.1 mm 4 m/S 748 mmHg 89%
    23:00 +6°C° 0.1 mm 5 m/S 748 mmHg 89%

    übermorgen, 19 Dezember, Mittwoch

    Zeit Temperatur Niederschläge Wind Luftdruck Luftfeuchtigkeit
    00:00 +6°C° 0.1 mm 5 m/S 749 mmHg 89%
    01:00 +6°C° 0.1 mm 5 m/S 749 mmHg 89%
    02:00 +5°C° 0.1 mm 5 m/S 749 mmHg 89%
    03:00 +5°C° 0.1 mm 5 m/S 750 mmHg 89%
    04:00 +5°C° 0 mm 5 m/S 750 mmHg 89%
    05:00 +5°C° 0 mm 4 m/S 750 mmHg 89%
    06:00 +5°C° 0 mm 4 m/S 751 mmHg 90%
    07:00 +4°C° 0 mm 4 m/S 751 mmHg 89%
    08:00 +4°C° 0 mm 4 m/S 751 mmHg 89%
    09:00 +3°C° 0 mm 5 m/S 751 mmHg 89%
    10:00 +5°C° 0 mm 5 m/S 751 mmHg 85%
    11:00 +6°C° 0 mm 5 m/S 751 mmHg 81%
    12:00 +7°C° 0 mm 6 m/S 751 mmHg 77%
    13:00 +7°C° 0.1 mm 6 m/S 751 mmHg 78%
    14:00 +5°C° 0.1 mm 6 m/S 751 mmHg 78%
    15:00 +5°C° 0.1 mm 6 m/S 751 mmHg 78%
    16:00 +5°C° 0.1 mm 6 m/S 751 mmHg 80%
    17:00 +5°C° 0.1 mm 6 m/S 751 mmHg 81%
    18:00 +4°C° 0.1 mm 6 m/S 751 mmHg 83%
    19:00 +4°C° 0.1 mm 6 m/S 751 mmHg 84%
    20:00 +4°C° 0.1 mm 6 m/S 751 mmHg 85%
    21:00 +5°C° 0.1 mm 5 m/S 752 mmHg 86%
    22:00 +5°C° 0.1 mm 5 m/S 752 mmHg 87%
    23:00 +3°C° 0.1 mm 5 m/S 752 mmHg 87%

    20 Dezember, Donnerstag

    Zeit Temperatur Niederschläge Wind Luftdruck Luftfeuchtigkeit
    00:00 +3°C° 0.1 mm 5 m/S 752 mmHg 88%
    01:00 +3°C° 0.2 mm 6 m/S 752 mmHg 87%
    02:00 +4°C° 0.2 mm 6 m/S 752 mmHg 87%
    03:00 +4°C° 0.2 mm 6 m/S 752 mmHg 87%
    04:00 +4°C° 0.4 mm 6 m/S 751 mmHg 86%
    05:00 +4°C° 0.4 mm 7 m/S 751 mmHg 86%
    06:00 +4°C° 0.4 mm 7 m/S 751 mmHg 85%
    07:00 +5°C° 0.6 mm 7 m/S 751 mmHg 85%
    08:00 +5°C° 0.6 mm 8 m/S 750 mmHg 84%
    09:00 +5°C° 0.6 mm 8 m/S 750 mmHg 84%
    10:00 +5°C° 0.6 mm 8 m/S 751 mmHg 82%
    11:00 +6°C° 0.6 mm 8 m/S 751 mmHg 80%
    12:00 +6°C° 0.6 mm 8 m/S 751 mmHg 78%
    13:00 +6°C° 0.2 mm 8 m/S 751 mmHg 78%
    14:00 +6°C° 0.2 mm 8 m/S 751 mmHg 78%
    15:00 +6°C° 0.2 mm 8 m/S 751 mmHg 78%
    16:00 +6°C° 0.1 mm 7 m/S 752 mmHg 79%
    17:00 +5°C° 0.1 mm 7 m/S 752 mmHg 81%
    18:00 +5°C° 0.1 mm 7 m/S 752 mmHg 83%
    19:00 +5°C° 0 mm 6 m/S 752 mmHg 84%
    20:00 +5°C° 0 mm 6 m/S 753 mmHg 85%
    21:00 +4°C° 0 mm 6 m/S 753 mmHg 86%
    22:00 +5°C° 0 mm 5 m/S 753 mmHg 87%
    23:00 +5°C° 0 mm 4 m/S 752 mmHg 88%

    21 Dezember, Freitag

    Zeit Temperatur Niederschläge Wind Luftdruck Luftfeuchtigkeit
    00:00 +5°C° 0 mm 4 m/S 752 mmHg 88%
    01:00 +5°C° 0 mm 4 m/S 752 mmHg 89%
    02:00 +5°C° 0 mm 3 m/S 751 mmHg 89%
    03:00 +5°C° 0 mm 3 m/S 750 mmHg 90%
    04:00 +5°C° 0.6 mm 4 m/S 749 mmHg 91%
    05:00 +5°C° 0.6 mm 5 m/S 748 mmHg 92%
    06:00 +5°C° 0.6 mm 5 m/S 747 mmHg 93%
    07:00 +5°C° 1.1 mm 6 m/S 747 mmHg 92%
    08:00 +6°C° 1.1 mm 7 m/S 746 mmHg 91%
    09:00 +6°C° 1.1 mm 8 m/S 746 mmHg 90%
    10:00 +7°C° 0.1 mm 9 m/S 747 mmHg 84%
    11:00 +7°C° 0.1 mm 10 m/S 747 mmHg 78%
    12:00 +7°C° 0.1 mm 12 m/S 748 mmHg 71%
    13:00 +7°C° 0.1 mm 11 m/S 748 mmHg 72%
    14:00 +8°C° 0.1 mm 11 m/S 749 mmHg 73%
    15:00 +8°C° 0.1 mm 11 m/S 749 mmHg 74%
    16:00 +7°C° 0.1 mm 10 m/S 749 mmHg 76%
    17:00 +7°C° 0.1 mm 9 m/S 750 mmHg 79%
    18:00 +7°C° 0.1 mm 8 m/S 750 mmHg 82%
    19:00 +7°C° 0.5 mm 8 m/S 750 mmHg 84%
    20:00 +7°C° 0.5 mm 8 m/S 750 mmHg 86%
    21:00 +9°C° 0.5 mm 8 m/S 750 mmHg 88%
    22:00 +7°C° 0.3 mm 8 m/S 750 mmHg 85%
    23:00 +7°C° 0.3 mm 9 m/S 751 mmHg 82%

    22 Dezember, Samstag

    Zeit Temperatur Niederschläge Wind Luftdruck Luftfeuchtigkeit
    00:00 +7°C° 0.3 mm 9 m/S 751 mmHg 79%
    01:00 +7°C° 0.2 mm 9 m/S 752 mmHg 81%
    02:00 +7°C° 0.2 mm 9 m/S 753 mmHg 82%
    03:00 +7°C° 0.2 mm 8 m/S 754 mmHg 84%
    04:00 +7°C° 0.1 mm 8 m/S 754 mmHg 82%
    05:00 +7°C° 0.1 mm 8 m/S 755 mmHg 81%
    06:00 +6°C° 0.1 mm 8 m/S 756 mmHg 79%
    07:00 +6°C° 0 mm 8 m/S 756 mmHg 80%
    08:00 +6°C° 0 mm 7 m/S 757 mmHg 80%
    09:00 +7°C° 0 mm 6 m/S 758 mmHg 81%
    10:00 +7°C° 0 mm 6 m/S 758 mmHg 79%
    11:00 +8°C° 0 mm 6 m/S 758 mmHg 78%
    12:00 +8°C° 0 mm 6 m/S 759 mmHg 76%
    13:00 +8°C° 0 mm 5 m/S 759 mmHg 78%
    14:00 +8°C° 0 mm 5 m/S 759 mmHg 80%
    15:00 +8°C° 0 mm 4 m/S 759 mmHg 81%
    16:00 +7°C° 0 mm 4 m/S 759 mmHg 84%
    17:00 +7°C° 0 mm 4 m/S 759 mmHg 88%
    18:00 +6°C° 0 mm 4 m/S 759 mmHg 91%
    19:00 +7°C° 0 mm 4 m/S 759 mmHg 91%
    20:00 +7°C° 0 mm 4 m/S 759 mmHg 92%
    21:00 +7°C° 0 mm 4 m/S 759 mmHg 93%
    22:00 +7°C° 0.1 mm 4 m/S 759 mmHg 93%
    23:00 +7°C° 0.1 mm 4 m/S 758 mmHg 94%
    Mehr zeigen